Presure
190 191 139 171 192 151 203 201 168 179 169 220 191 289 321 261 251 279 247 274 252 240 237 227 212 206 206 215 205 208 217 230 237 236 238 237 234 233 243 257 231 238 258
145 200 201 159 200 203 160 163 177 207 228 333 321 293 249 285 276 251 311 265 252 242 230 220 213 209 210 224 203 222 203 204 217 222 243 243 245 244 237 228 241 241 255
193 178 145 185 195 148 168 181 203 263 171 205 260 235 277 252 243 278 284 260 248 234 226 225 215 213 207 201 202 202 207 226 219 203 213 218 233 243 248 251 251 246 239
195 200 156 189 184 160 172 170 172 260 247 249 268 257 243 242 238 240 238 235 233 230 224 225 218 213 205 207 205 191 200 196 203 234 242 210 212 220 223 238 258 259 251
165 206 248 253 241 232 205 172 205 235 242 238 234 234 232 227 204 201 210 187 212 193 193 193 215 201 194 186 211 220 205 200 196 215 225 235 243 223 206 221 222 225 233
248 255 250 240 251 237 241 235 234 229 229 218 203 217 221 212 164 220 222 206 153 154 204 211 211 199 209 211 196 210 214 216 215 214 211 240 224 229 238 237 204 213 219
233 226 228 229 226 225 228 226 221 215 215 197 223 211 211 215 216 204 208 220 178 206 210 209 219 211 188 197 214 213 214 218 215 222 222 215 229 217 201 220 227 234 197
214 216 215 213 214 214 218 219 217 217 219 216 210 210 200 202 198 198 184 187 199 206 211 214 212 198 218 208 206 204 209 219 217 220 214 220 208 212 228 221 213 209 221
210 212 173 228 233 234 233 224 228 230 227 217 215 215 192 194 188 206 224 218 214 204 219 210 157 206 205 217 203 208 199 206 211 218 200 219 218 204 209 214 195 223 217
235 256 249 200 195 207 219 234 182 131 236 198 230 226 219 192 183 212 239 235 231 232 225 225 219 217 217 207 192 214 202 198 204 205 204 214 213 198 215 213 207 211 203
210 189 209 218 248 219 227 241 220 251 254 245 182 249 228 169 186 215 218 217 176 231 237 233 237 234 227 228 230 227 222 216 216 216 221 218 206 217 192 216 215 212 211
167 234 214 232 238 188 182 151 244 227 253 174 228 245 215 163 216 261 210 263 262 243 195 243 236 240 229 240 246 246 248 238 228 226 226 223 217 220 217 200 223 221 216
240 232 208 234 244 262 193 173 262 264 177 249 245 255 234 203 178 196 183 251 256 256 267 266 266 262 250 248 242 242 247 249 252 245 241 235 232 225 224 213 231 228 226
217 247 256 244 254 254 256 182 242 249 253 160 255 256 177 190 272 272 261 294 297 298 287 293 302 296 291 290 303 298 277 273 270 253 253 257 242 249 240 237 237 238 237
262 258 206 254 251 242 249 241 244 251 257 258 261 264 265 260 212 278 276 265 280 260 244 249 251 258 268 277 266 300 314 293 271 299 292 273 269 256 242 244 249 249 251
250 248 253 250 250 244 247 243 260 266 245 258 211 280 285 272 263 245 259 252 263 271 263 276 284 274 246 247 249 252 255 259 284 301 269 286 291 285 268 266 262 246 254
251 258 250 252 249 261 261 264 267 283 262 281 284 281 322 321 309 306 276 298 261 263 281 267 286 261 266 263 258 270 292 265 253 265 242 240 242 269 279 284 287 293 277
251 250 250 263 261 266 266 274 282 302 290 292 321 323 312 318 315 323 318 302 333 325 331 325 326 328 277 280 279 285 320 317 312 295 316 296 245 244 252 238 245 250 266
261 255 260 262 268 271 288 296 312 294 317 330 319 316 324 330 331 331 339 345 342 339 339 341 340 337 328 327 327 320 311 327 317 320 317 326 314 310 287 298 271 252 300
271 261 268 264 285 308 312 322 315 326 342 335 335 341 347 347 343 340 342 345 345 345 344 343 342 339 337 342 339 337 340 335 331 334 333 330 331 329 319 320 315 304 320
264 285 276 290 306 305 320 338 352 351 348 345 344 345 347 352 354 352 352 351 350 352 354 363 362 363 355 352 357 350 348 339 342 340 334 334 335 337 334 336 335 330 330
279 290 292 305 328 336 339 310 335 354 354 352 355 360 365 372 376 384 388 404 403 408 408 398 384 382 377 372 372 364 363 361 355 354 352 351 351 348 346 345 347 340 341
296 311 320 321 344 330 338 349 350 350 357 361 371 389 407 421 416 409 404 401 403 408 409 419 414 412 412 409 401 402 393 385 387 382 381 380 380 382 378 380 377 374 368
319 325 339 342 340 352 354 348 343 349 395 417 407 396 389 375 366 367 481 436 479 446 454 452 436 424 419 424 405 402 402 387 389 388 384 399 401 403 397 379 364 348 346
335 342 350 349 349 348 348 362 409 400 384 371 358 355 463 470 465 459 458 461 463 463 459 457 459 464 423 404 404 403 403 426 409 414 400 396 395 394 400 403 405 404 400
347 351 348 346 349 363 401 390 368 345 332 372 430 442 446 445 442 440 441 442 445 441 436 440 422 420 432 413 424 421 416 403 399 401 426 448 453 453 453 462 472 491 393
Wind_Speed
84 84 59 73 88 54 89 89 60 74 66 91 77 84 59 61 62 53 49 28 31 33 31 32 38 39 41 34 36 31 26 25 24 25 24 20 21 22 23 21 20 24 27
56 88 89 62 91 92 58 60 68 89 94 66 61 55 60 51 47 46 31 30 30 31 32 36 37 38 35 31 36 28 32 28 24 21 26 27 25 25 23 23 24 23 25
87 77 63 83 91 60 66 78 91 85 71 75 58 60 40 43 43 38 30 29 29 31 34 36 38 38 37 39 39 37 35 29 29 26 23 24 24 25 25 26 26 25 24
92 94 64 83 80 65 70 70 72 60 60 58 42 43 47 45 44 39 35 35 33 35 38 38 41 40 41 42 43 40 42 39 34 30 30 28 26 25 25 23 25 28 26
75 96 81 84 61 64 72 76 67 66 60 57 57 55 52 50 50 51 50 51 48 48 46 44 45 44 43 42 45 42 45 40 41 35 32 32 29 29 31 26 23 24 23
73 67 64 74 62 70 69 68 68 66 64 65 62 62 59 56 56 56 54 53 53 51 52 51 52 50 51 50 49 48 47 46 43 39 42 37 32 30 30 32 30 29 29
72 75 76 77 77 77 76 76 74 73 72 68 69 66 65 64 63 60 61 61 54 58 58 57 58 55 51 52 53 53 53 51 49 46 43 41 39 35 39 34 31 32 37
80 80 80 79 80 80 80 80 79 79 78 76 73 73 68 67 65 63 60 61 64 66 67 67 66 62 64 58 56 56 56 57 52 51 49 49 46 41 40 39 40 38 36
84 85 68 85 84 84 83 87 87 87 88 84 82 82 67 69 65 73 80 78 76 69 77 71 62 68 64 68 59 62 58 57 56 58 52 57 55 49 45 45 49 43 42
72 68 74 83 85 90 94 90 69 51 85 74 94 92 88 65 56 75 86 87 85 87 85 84 81 80 80 70 65 71 64 61 61 57 57 61 59 58 54 53 52 51 49
93 84 87 82 78 76 85 85 82 86 86 86 67 90 87 64 65 84 82 83 77 88 91 90 88 89 88 83 91 86 80 74 73 70 73 72 69 68 62 60 57 57 56
71 85 84 88 81 75 76 67 92 88 86 66 83 92 75 74 84 92 87 95 95 97 78 98 98 96 89 93 93 91 91 91 89 87 85 80 71 76 73 71 70 66 62
88 92 83 85 86 83 82 70 86 87 72 91 89 93 94 75 79 91 77 95 98 98 100 100 102 102 100 98 97 95 92 92 94 94 95 96 92 82 80 79 85 80 77
103 87 87 88 87 85 83 82 84 92 90 80 94 95 87 89 105 105 102 106 99 95 94 97 99 103 102 102 99 100 98 96 96 96 95 97 94 96 95 90 90 89 87
90 89 83 89 89 88 89 94 96 96 96 98 102 101 103 98 84 102 99 95 96 91 89 90 89 89 93 96 92 92 93 94 94 96 97 97 99 98 94 95 95 95 94
92 93 95 94 93 95 98 99 106 106 107 108 89 109 109 102 97 97 97 93 94 95 93 94 93 91 89 90 90 89 88 87 91 91 92 93 97 98 97 98 99 95 96
94 96 98 102 102 105 108 107 106 114 111 111 112 110 107 102 103 102 101 103 97 96 98 92 94 89 90 90 91 93 94 93 89 89 83 83 83 91 95 97 96 98 101
99 100 101 101 103 105 108 111 112 107 107 111 108 102 105 102 101 101 103 103 93 96 91 93 93 91 91 95 94 95 88 89 90 92 86 88 89 89 91 86 87 88 88
99 101 102 105 109 113 115 112 109 103 107 101 98 99 102 98 95 95 93 89 87 87 88 88 88 88 90 89 88 90 89 86 88 88 89 86 88 88 91 90 94 92 90
103 102 104 105 115 113 111 109 104 104 99 96 93 91 89 89 87 87 88 88 86 85 84 83 83 84 85 82 84 83 82 83 83 82 83 85 85 86 87 88 88 91 89
104 111 108 114 116 107 107 106 100 94 92 90 89 88 89 88 85 86 86 87 87 85 83 82 81 80 81 80 80 80 80 80 80 80 80 81 82 83 85 86 88 88 90
107 113 114 116 113 108 102 98 93 90 89 88 86 85 87 86 84 83 83 80 82 81 81 81 79 80 80 79 78 77 76 76 76 77 77 78 79 80 81 82 82 82 85
113 118 116 111 107 100 94 90 87 87 86 85 84 82 78 73 72 71 71 73 73 71 71 69 70 69 70 71 72 70 70 71 71 71 70 70 69 70 71 72 73 74 76
116 109 107 102 97 92 88 86 84 84 83 77 74 72 71 70 71 71 43 58 45 52 49 49 54 55 56 55 61 61 60 62 62 61 62 61 60 60 61 64 66 68 68
106 101 95 91 88 87 85 85 80 77 74 72 69 68 48 45 40 38 38 38 38 38 38 39 39 37 43 46 48 50 50 46 51 51 52 53 53 54 54 54 54 55 56
94 90 87 86 86 86 80 75 72 70 68 61 49 46 43 38 36 35 34 33 32 32 33 32 33 33 31 35 35 37 38 42 43 44 41 37 34 34 35 35 36 35 48
Wind_Direction
276 278 284 282 281 285 286 287 288 291 295 295 297 297 297 299 300 304 298 268 275 282 284 285 290 297 300 308 307 314 325 336 334 322 317 313 304 300 297 289 273 283 276
285 278 279 283 283 284 289 287 292 293 293 293 293 294 294 297 300 297 284 268 271 275 277 281 286 291 297 309 303 317 307 311 318 325 315 310 306 302 296 291 288 285 284
275 278 281 283 282 286 290 290 291 293 295 294 292 295 292 292 291 294 271 269 270 274 279 280 283 287 290 296 298 300 302 311 310 304 305 307 315 309 300 295 293 290 283
275 277 284 284 285 287 289 290 290 290 290 292 289 289 291 290 290 289 290 283 282 279 281 280 280 283 289 291 292 295 296 296 299 307 303 294 295 294 296 303 298 294 291
280 281 283 286 283 285 288 290 291 291 290 291 292 291 291 289 289 289 289 287 289 288 288 284 285 289 290 288 289 292 288 290 292 294 298 298 292 285 285 287 288 291 296
281 281 280 283 282 284 285 285 285 286 286 287 286 288 289 289 285 290 288 290 289 291 288 285 284 286 285 286 284 288 286 287 286 287 287 296 287 285 286 284 279 280 282
281 283 284 284 284 285 286 286 285 285 285 284 286 285 286 288 288 287 289 287 286 287 287 287 284 281 284 286 284 283 284 286 285 288 287 284 286 279 277 282 283 284 275
280 280 281 281 281 281 282 282 283 283 283 284 284 284 284 285 285 284 281 281 284 286 286 286 285 280 285 283 283 284 284 285 283 287 280 283 276 278 282 279 274 273 277
278 280 281 281 282 283 283 283 284 283 284 283 284 284 282 282 279 282 283 283 282 282 281 282 282 281 279 281 276 279 274 279 282 283 271 284 283 272 274 276 271 281 272
285 289 281 283 284 283 282 280 281 281 279 283 283 284 283 279 274 279 278 279 279 278 280 279 280 280 281 276 270 278 272 269 273 272 270 279 277 269 278 274 268 274 266
282 284 283 284 279 279 278 279 278 280 280 278 274 274 275 271 278 278 274 282 278 278 276 279 276 275 276 277 276 277 276 276 275 275 276 274 274 276 266 273 270 272 270
273 282 285 279 280 278 280 281 276 276 274 268 276 276 272 272 279 275 278 274 272 274 278 273 276 274 278 274 273 272 271 272 274 274 274 274 272 274 272 270 273 273 270
284 281 281 281 281 280 277 269 276 275 265 272 272 272 272 282 265 275 269 274 273 274 271 271 270 268 269 270 271 271 269 269 268 268 269 270 272 271 271 266 273 273 273
282 285 284 283 281 279 280 274 277 275 276 272 275 274 278 270 276 275 275 277 275 274 273 272 272 271 271 272 272 270 268 266 265 267 267 266 267 267 268 269 270 270 269
287 287 280 285 284 279 282 277 278 279 278 278 278 278 277 274 283 278 278 275 275 273 274 273 271 270 270 269 269 271 269 267 267 265 264 264 263 264 265 265 265 266 266
290 289 288 288 287 285 284 282 283 281 279 280 281 279 279 277 274 275 275 274 273 273 273 272 271 270 271 271 271 270 269 269 268 266 266 264 263 264 263 263 263 264 263
289 288 288 286 285 286 285 283 283 286 281 282 282 281 285 282 279 277 274 277 273 274 272 270 271 268 269 269 268 267 271 266 268 266 267 267 266 265 264 263 263 262 261
288 286 286 286 286 286 285 286 288 285 283 285 289 288 282 283 281 282 279 277 280 279 279 278 278 277 270 269 270 270 275 274 273 269 271 265 264 264 263 264 263 262 261
285 286 287 287 288 287 287 287 287 287 289 288 285 285 285 285 284 283 283 281 279 278 278 276 275 274 274 273 273 274 271 271 271 272 270 269 267 266 263 263 261 261 263
286 286 287 289 289 289 290 291 289 291 291 289 287 286 285 285 284 282 282 280 279 276 275 273 272 272 272 271 270 269 268 268 268 268 266 266 264 264 265 264 264 263 263
286 290 289 290 289 290 291 293 293 292 290 289 288 286 285 284 282 282 281 280 278 277 276 275 273 271 270 270 269 268 267 267 267 266 266 265 264 264 263 262 261 261 260
291 292 290 290 291 292 292 291 291 291 290 289 287 286 285 284 283 282 281 280 278 278 276 274 273 272 272 270 270 269 268 267 266 265 264 264 263 263 263 262 261 261 260
291 290 290 290 292 292 293 292 291 290 289 288 288 288 288 288 286 284 282 281 281 280 279 277 275 274 272 272 272 272 271 271 271 270 269 267 266 265 263 263 262 261 260
290 290 291 292 292 292 291 290 291 291 293 293 292 290 288 286 286 285 288 281 282 279 279 278 275 272 272 271 270 270 270 270 270 270 269 269 268 267 265 263 260 259 259
290 291 292 292 292 292 292 293 295 294 293 292 290 289 293 292 289 286 284 283 282 281 280 279 279 276 272 269 270 270 270 271 272 272 272 271 269 267 267 265 263 260 257
290 292 293 293 292 293 295 294 294 292 291 293 293 295 292 288 284 281 280 281 280 281 281 279 277 275 272 271 270 271 271 272 272 272 274 276 272 269 266 263 260 258 256